Wetterdaten: Samstag, 28.11.2015
Datum Zeit Auen-Temp. Temp gefhlt Luftfeuchte Luftdruck Regen Wind Richtung Richtung Taupunkt Windben
28.11.2015 00:00 -3,0 C -3,6 C 87 % 1014,8 hPa 0,0 mm 5,7 km/h (1 Bft) SW 225 -4,9 C 13,2 km/h (3 Bft)
28.11.2015 00:05 -3,0 C -3,5 C 87 % 1014,8 hPa 0,0 mm 5,2 km/h (1 Bft) SW 225 -4,9 C 3,6 km/h (1 Bft)
28.11.2015 00:10 -3,0 C -3,4 C 87 % 1014,8 hPa 0,0 mm 4,1 km/h (1 Bft) SW 225 -4,9 C 10,6 km/h (2 Bft)
28.11.2015 00:15 -2,9 C -3,5 C 87 % 1014,8 hPa 0,0 mm 5,2 km/h (1 Bft) S-SW 202 -4,8 C 4,4 km/h (1 Bft)
28.11.2015 00:20 -3,0 C -3,5 C 87 % 1014,8 hPa 0,0 mm 5,2 km/h (1 Bft) W-SW 247 -4,9 C 12,4 km/h (3 Bft)
28.11.2015 00:25 -3,0 C -3,5 C 87 % 1014,8 hPa 0,0 mm 4,9 km/h (1 Bft) S-SW 202 -4,9 C 8,0 km/h (2 Bft)
28.11.2015 00:30 -3,0 C -3,5 C 87 % 1014,8 hPa 0,0 mm 4,9 km/h (1 Bft) S 180 -4,9 C 0,0 km/h (0 Bft)
28.11.2015 00:35 -3,0 C -3,4 C 87 % 1014,7 hPa 0,0 mm 4,4 km/h (1 Bft) S 180 -4,9 C 8,0 km/h (2 Bft)
28.11.2015 00:40 -3,0 C -3,2 C 87 % 1014,7 hPa 0,0 mm 2,6 km/h (1 Bft) W-SW 247 -4,9 C 13,7 km/h (3 Bft)
28.11.2015 00:45 -3,0 C -3,2 C 86 % 1014,7 hPa 0,0 mm 3,6 km/h (1 Bft) SW 225 -5,0 C 6,2 km/h (2 Bft)
28.11.2015 00:50 -3,0 C -3,2 C 86 % 1014,7 hPa 0,0 mm 2,8 km/h (1 Bft) S 180 -5,0 C 16,6 km/h (3 Bft)
28.11.2015 00:55 -3,1 C -3,3 C 86 % 1014,5 hPa 0,0 mm 1,0 km/h (0 Bft) W-SW 247 -5,1 C 4,7 km/h (1 Bft)
28.11.2015 01:00 -3,1 C -3,3 C 86 % 1014,5 hPa 0,0 mm 0,3 km/h (0 Bft) S-SO 157 -5,1 C 0,0 km/h (0 Bft)
28.11.2015 01:05 -3,1 C -3,3 C 86 % 1014,5 hPa 0,0 mm 0,3 km/h (0 Bft) S-SO 157 -5,1 C 0,0 km/h (0 Bft)
28.11.2015 01:10 -3,2 C -3,3 C 85 % 1014,5 hPa 0,0 mm 0,3 km/h (0 Bft) W 270 -5,4 C 2,8 km/h (1 Bft)
28.11.2015 01:15 -3,2 C -3,3 C 85 % 1014,3 hPa 0,0 mm 1,0 km/h (0 Bft) W 270 -5,4 C 2,6 km/h (1 Bft)
28.11.2015 01:20 -3,2 C -3,3 C 85 % 1014,3 hPa 0,0 mm 1,6 km/h (1 Bft) S-SO 157 -5,4 C 0,0 km/h (0 Bft)
28.11.2015 01:25 -3,2 C -3,3 C 85 % 1014,3 hPa 0,0 mm 0,8 km/h (0 Bft) S-SO 157 -5,4 C 0,0 km/h (0 Bft)
28.11.2015 01:30 -3,2 C -3,3 C 85 % 1014,3 hPa 0,0 mm 0,0 km/h (0 Bft) S-SO 157 -5,4 C 0,0 km/h (0 Bft)
28.11.2015 01:35 -3,2 C -3,4 C 86 % 1014,3 hPa 0,0 mm 0,3 km/h (0 Bft) W 270 -5,2 C 0,0 km/h (0 Bft)
28.11.2015 01:40 -3,2 C -3,4 C 86 % 1014,3 hPa 0,0 mm 0,3 km/h (0 Bft) SW 225 -5,2 C 0,0 km/h (0 Bft)
28.11.2015 01:45 -3,2 C -3,3 C 84 % 1014,3 hPa 0,0 mm 1,3 km/h (1 Bft) W-SW 247 -5,5 C 3,1 km/h (1 Bft)
28.11.2015 01:50 -3,2 C -3,3 C 84 % 1014,3 hPa 0,0 mm 1,3 km/h (1 Bft) SW 225 -5,5 C 3,6 km/h (1 Bft)
28.11.2015 01:55 -3,2 C -3,3 C 84 % 1014,2 hPa 0,0 mm 0,8 km/h (0 Bft) S-SO 157 -5,5 C 0,0 km/h (0 Bft)
28.11.2015 02:00 -3,2 C -3,4 C 86 % 1014,2 hPa 0,0 mm 1,0 km/h (0 Bft) SW 225 -5,2 C 6,5 km/h (2 Bft)
28.11.2015 02:05 -3,2 C -3,3 C 84 % 1014,2 hPa 0,0 mm 1,0 km/h (0 Bft) SW 225 -5,5 C 3,9 km/h (1 Bft)
28.11.2015 02:10 -3,2 C -3,3 C 84 % 1014,2 hPa 0,0 mm 2,3 km/h (1 Bft) S 180 -5,5 C 0,0 km/h (0 Bft)
28.11.2015 02:15 -3,2 C -3,4 C 86 % 1014,2 hPa 0,0 mm 2,1 km/h (1 Bft) SW 225 -5,2 C 0,0 km/h (0 Bft)
28.11.2015 02:20 -3,2 C -3,4 C 86 % 1014,2 hPa 0,0 mm 0,5 km/h (0 Bft) S 180 -5,2 C 0,0 km/h (0 Bft)
28.11.2015 02:25 -3,2 C -3,4 C 86 % 1014,2 hPa 0,0 mm 1,6 km/h (1 Bft) SW 225 -5,2 C 11,7 km/h (2 Bft)
28.11.2015 02:30 -3,2 C -3,4 C 86 % 1014,2 hPa 0,0 mm 3,1 km/h (1 Bft) SW 225 -5,2 C 4,7 km/h (1 Bft)
28.11.2015 02:35 -3,2 C -3,6 C 86 % 1014,2 hPa 0,0 mm 4,4 km/h (1 Bft) W-SW 247 -5,2 C 7,3 km/h (2 Bft)
28.11.2015 02:40 -3,3 C -3,8 C 86 % 1014,2 hPa 0,0 mm 5,2 km/h (1 Bft) SW 225 -5,3 C 6,0 km/h (2 Bft)
28.11.2015 02:45 -3,3 C -3,7 C 86 % 1014,2 hPa 0,0 mm 4,7 km/h (1 Bft) W-SW 247 -5,3 C 0,0 km/h (0 Bft)
28.11.2015 02:50 -3,3 C -3,5 C 86 % 1014,2 hPa 0,0 mm 2,1 km/h (1 Bft) O-NO 67 -5,3 C 0,0 km/h (0 Bft)
28.11.2015 02:55 -3,3 C -3,5 C 86 % 1014,0 hPa 0,0 mm 0,0 km/h (0 Bft) SO 135 -5,3 C 0,0 km/h (0 Bft)
28.11.2015 03:00 -3,3 C -3,5 C 86 % 1014,0 hPa 0,0 mm 0,0 km/h (0 Bft) O-NO 67 -5,3 C 0,0 km/h (0 Bft)
28.11.2015 03:05 -3,3 C -3,5 C 86 % 1014,0 hPa 0,0 mm 0,8 km/h (0 Bft) S 180 -5,3 C 5,2 km/h (1 Bft)
28.11.2015 03:10 -3,3 C -3,5 C 85 % 1014,0 hPa 0,0 mm 1,8 km/h (1 Bft) W-SW 247 -5,5 C 7,0 km/h (2 Bft)
28.11.2015 03:15 -3,4 C -3,5 C 84 % 1014,0 hPa 0,0 mm 1,6 km/h (1 Bft) W-SW 247 -5,7 C 0,0 km/h (0 Bft)
28.11.2015 03:20 -3,4 C -3,6 C 85 % 1014,0 hPa 0,0 mm 0,8 km/h (0 Bft) S 180 -5,5 C 0,0 km/h (0 Bft)
28.11.2015 03:25 -3,4 C -3,6 C 85 % 1014,0 hPa 0,0 mm 0,0 km/h (0 Bft) NW 315 -5,5 C 0,0 km/h (0 Bft)
28.11.2015 03:30 -3,5 C -3,7 C 85 % 1014,0 hPa 0,0 mm 0,3 km/h (0 Bft) SW 225 -5,6 C 6,2 km/h (2 Bft)
28.11.2015 03:35 -3,5 C -3,7 C 85 % 1014,0 hPa 0,0 mm 0,8 km/h (0 Bft) W-SW 247 -5,6 C 0,0 km/h (0 Bft)
28.11.2015 03:40 -3,5 C -3,7 C 85 % 1014,0 hPa 0,0 mm 0,8 km/h (0 Bft) S-SO 157 -5,6 C 0,0 km/h (0 Bft)
28.11.2015 03:45 -3,6 C -3,8 C 85 % 1014,0 hPa 0,0 mm 0,0 km/h (0 Bft) O-SO 112 -5,7 C 0,0 km/h (0 Bft)
28.11.2015 03:50 -3,7 C -4,0 C 85 % 1014,0 hPa 0,0 mm 0,0 km/h (0 Bft) O 90 -5,8 C 0,0 km/h (0 Bft)
28.11.2015 03:55 -3,9 C -4,2 C 85 % 1014,0 hPa 0,0 mm 0,0 km/h (0 Bft) O-SO 112 -6,0 C 0,0 km/h (0 Bft)
28.11.2015 04:00 -4,2 C -4,4 C 85 % 1014,0 hPa 0,0 mm 0,0 km/h (0 Bft) W-SW 247 -6,3 C 0,0 km/h (0 Bft)
28.11.2015 04:05 -4,3 C -4,6 C 85 % 1014,0 hPa 0,0 mm 0,0 km/h (0 Bft) SW 225 -6,4 C 0,0 km/h (0 Bft)
28.11.2015 04:10 -4,7 C -5,0 C 85 % 1014,0 hPa 0,0 mm 0,3 km/h (0 Bft) SW 225 -6,8 C 0,0 km/h (0 Bft)
28.11.2015 04:15 -4,7 C -5,1 C 85 % 1013,6 hPa 0,0 mm 0,3 km/h (0 Bft) O 90 -6,8 C 0,0 km/h (0 Bft)
28.11.2015 04:20 -5,4 C -5,8 C 84 % 1013,6 hPa 0,0 mm 0,0 km/h (0 Bft) O-NO 67 -7,7 C 0,0 km/h (0 Bft)
28.11.2015 04:25 -5,1 C -5,6 C 85 % 1013,6 hPa 0,0 mm 0,0 km/h (0 Bft) O-SO 112 -7,2 C 0,0 km/h (0 Bft)
28.11.2015 04:30 -5,6 C -6,1 C 84 % 1013,6 hPa 0,0 mm 0,0 km/h (0 Bft) S-SO 157 -7,9 C 0,0 km/h (0 Bft)
28.11.2015 04:35 -5,6 C -6,1 C 85 % 1013,6 hPa 0,0 mm 0,0 km/h (0 Bft) SO 135 -7,7 C 0,0 km/h (0 Bft)
28.11.2015 04:40 -6,0 C -6,4 C 85 % 1013,6 hPa 0,0 mm 0,0 km/h (0 Bft) W-SW 247 -8,1 C 3,6 km/h (1 Bft)
28.11.2015 04:45 -5,8 C -6,3 C 85 % 1013,6 hPa 0,0 mm 1,3 km/h (1 Bft) S 180 -7,9 C 0,0 km/h (0 Bft)
28.11.2015 04:50 -5,7 C -6,2 C 85 % 1013,6 hPa 0,0 mm 2,1 km/h (1 Bft) S 180 -7,8 C 8,0 km/h (2 Bft)
28.11.2015 04:55 -5,8 C -6,2 C 82 % 1013,7 hPa 0,0 mm 1,6 km/h (1 Bft) SO 135 -8,4 C 2,6 km/h (1 Bft)
28.11.2015 05:00 -6,3 C -6,7 C 86 % 1013,7 hPa 0,0 mm 1,8 km/h (1 Bft) S 180 -8,2 C 0,0 km/h (0 Bft)
28.11.2015 05:05 -6,5 C -6,9 C 85 % 1013,7 hPa 0,0 mm 0,5 km/h (0 Bft) S-SW 202 -8,6 C 0,0 km/h (0 Bft)
28.11.2015 05:10 -6,7 C -7,2 C 85 % 1013,7 hPa 0,0 mm 0,0 km/h (0 Bft) S 180 -8,8 C 0,0 km/h (0 Bft)
28.11.2015 05:15 -6,7 C -7,2 C 85 % 1013,7 hPa 0,0 mm 0,0 km/h (0 Bft) S 180 -8,8 C 0,0 km/h (0 Bft)
28.11.2015 05:20 -7,3 C -7,7 C 85 % 1013,7 hPa 0,0 mm 0,0 km/h (0 Bft) S 180 -9,4 C 0,0 km/h (0 Bft)
28.11.2015 05:25 -7,4 C -7,9 C 85 % 1013,7 hPa 0,0 mm 0,0 km/h (0 Bft) S 180 -9,5 C 0,0 km/h (0 Bft)
28.11.2015 05:30 -7,5 C -8,0 C 85 % 1013,7 hPa 0,0 mm 0,0 km/h (0 Bft) W-SW 247 -9,6 C 0,0 km/h (0 Bft)
28.11.2015 05:33 -7,7 C -8,2 C 85 % 1013,7 hPa 0,0 mm 0,0 km/h (0 Bft) W-SW 247 -9,8 C 0,0 km/h (0 Bft)
28.11.2015 05:35 -7,7 C -8,2 C 85 % 1013,7 hPa 0,0 mm 0,0 km/h (0 Bft) W-SW 247 -9,8 C 0,0 km/h (0 Bft)
28.11.2015 05:40 -7,6 C -8,2 C 85 % 1013,7 hPa 0,0 mm 0,0 km/h (0 Bft) W-SW 247 -9,7 C 0,0 km/h (0 Bft)
28.11.2015 05:45 -7,1 C -7,8 C 85 % 1013,7 hPa 0,0 mm 0,0 km/h (0 Bft) W-SW 247 -9,2 C 0,0 km/h (0 Bft)
28.11.2015 05:50 -7,3 C -8,0 C 86 % 1013,7 hPa 0,0 mm 0,0 km/h (0 Bft) SW 225 -9,2 C 0,0 km/h (0 Bft)
28.11.2015 05:55 -7,2 C -7,9 C 86 % 1013,5 hPa 0,0 mm 0,0 km/h (0 Bft) SW 225 -9,1 C 0,0 km/h (0 Bft)
28.11.2015 06:00 -7,8 C -8,4 C 85 % 1013,5 hPa 0,0 mm 0,0 km/h (0 Bft) S-SW 202 -9,9 C 0,0 km/h (0 Bft)
28.11.2015 06:05 -7,9 C -8,4 C 85 % 1013,5 hPa 0,0 mm 0,0 km/h (0 Bft) W 270 -10,0 C 0,0 km/h (0 Bft)
28.11.2015 06:10 -7,9 C -8,4 C 85 % 1013,5 hPa 0,0 mm 0,8 km/h (0 Bft) SW 225 -10,0 C 9,6 km/h (2 Bft)
28.11.2015 06:15 -7,8 C -8,3 C 85 % 1013,5 hPa 0,0 mm 1,0 km/h (0 Bft) S 180 -9,9 C 0,0 km/h (0 Bft)
28.11.2015 06:20 -8,0 C -8,4 C 85 % 1013,5 hPa 0,0 mm 1,0 km/h (0 Bft) S-SW 202 -10,1 C 0,0 km/h (0 Bft)
28.11.2015 06:25 -7,8 C -8,3 C 85 % 1013,5 hPa 0,0 mm 0,0 km/h (0 Bft) S-SW 202 -9,9 C 0,0 km/h (0 Bft)
28.11.2015 06:30 -7,6 C -8,2 C 86 % 1013,5 hPa 0,0 mm 0,0 km/h (0 Bft) S 180 -9,5 C 0,0 km/h (0 Bft)
28.11.2015 06:35 -7,9 C -8,4 C 85 % 1013,2 hPa 0,0 mm 0,0 km/h (0 Bft) S 180 -10,0 C 0,0 km/h (0 Bft)
28.11.2015 06:40 -8,1 C -8,5 C 85 % 1013,2 hPa 0,0 mm 0,3 km/h (0 Bft) S 180 -10,2 C 0,0 km/h (0 Bft)
28.11.2015 06:45 -7,7 C -8,3 C 86 % 1013,2 hPa 0,0 mm 0,3 km/h (0 Bft) SW 225 -9,6 C 0,0 km/h (0 Bft)
28.11.2015 06:50 -7,6 C -8,2 C 86 % 1013,2 hPa 0,0 mm 0,0 km/h (0 Bft) S 180 -9,5 C 0,0 km/h (0 Bft)
28.11.2015 06:55 -7,7 C -8,3 C 86 % 1013,4 hPa 0,0 mm 0,0 km/h (0 Bft) SW 225 -9,6 C 0,0 km/h (0 Bft)
28.11.2015 07:00 -7,7 C -8,3 C 86 % 1013,4 hPa 0,0 mm 1,3 km/h (1 Bft) SW 225 -9,6 C 12,4 km/h (3 Bft)
28.11.2015 07:05 -7,6 C -8,2 C 86 % 1013,4 hPa 0,0 mm 1,8 km/h (1 Bft) W-SW 247 -9,5 C 9,1 km/h (2 Bft)
28.11.2015 07:10 -7,7 C -8,4 C 86 % 1013,4 hPa 0,0 mm 4,1 km/h (1 Bft) S-SO 157 -9,6 C 0,0 km/h (0 Bft)
28.11.2015 07:15 -8,1 C -8,4 C 85 % 1013,5 hPa 0,0 mm 2,8 km/h (1 Bft) SW 225 -10,2 C 0,0 km/h (0 Bft)
28.11.2015 07:20 -7,8 C -8,2 C 86 % 1013,5 hPa 0,0 mm 1,0 km/h (0 Bft) S 180 -9,7 C 0,0 km/h (0 Bft)
28.11.2015 07:25 -7,5 C -8,0 C 86 % 1013,5 hPa 0,0 mm 0,8 km/h (0 Bft) S 180 -9,4 C 0,0 km/h (0 Bft)
28.11.2015 07:30 -7,2 C -7,7 C 86 % 1013,5 hPa 0,0 mm 0,5 km/h (0 Bft) S 180 -9,1 C 0,0 km/h (0 Bft)
28.11.2015 07:35 -7,1 C -7,6 C 86 % 1013,3 hPa 0,0 mm 0,5 km/h (0 Bft) S-SO 157 -9,0 C 0,0 km/h (0 Bft)
28.11.2015 07:40 -6,8 C -7,3 C 87 % 1013,3 hPa 0,0 mm 0,0 km/h (0 Bft) SO 135 -8,6 C 0,0 km/h (0 Bft)
28.11.2015 07:45 -6,6 C -7,0 C 87 % 1013,3 hPa 0,0 mm 0,0 km/h (0 Bft) W-NW 292 -8,4 C 0,0 km/h (0 Bft)
28.11.2015 07:50 -6,5 C -6,6 C 83 % 1013,3 hPa 0,0 mm 0,5 km/h (0 Bft) S 180 -8,9 C 0,0 km/h (0 Bft)
28.11.2015 07:55 -6,2 C -6,4 C 83 % 1013,3 hPa 0,0 mm 0,5 km/h (0 Bft) S 180 -8,6 C 0,0 km/h (0 Bft)
28.11.2015 08:00 -6,0 C -6,1 C 83 % 1013,3 hPa 0,0 mm 0,0 km/h (0 Bft) W 270 -8,4 C 0,0 km/h (0 Bft)
28.11.2015 08:05 -5,9 C -5,8 C 83 % 1013,3 hPa 0,0 mm 0,0 km/h (0 Bft) W 270 -8,3 C 0,0 km/h (0 Bft)
28.11.2015 08:10 -5,6 C -5,5 C 84 % 1013,3 hPa 0,0 mm 0,0 km/h (0 Bft) W-SW 247 -7,9 C 0,0 km/h (0 Bft)
28.11.2015 08:15 -5,5 C -5,3 C 84 % 1013,2 hPa 0,0 mm 0,0 km/h (0 Bft) W-SW 247 -7,8 C 0,0 km/h (0 Bft)
28.11.2015 08:20 -5,3 C -5,2 C 84 % 1013,2 hPa 0,0 mm 0,0 km/h (0 Bft) NW 315 -7,6 C 0,0 km/h (0 Bft)
28.11.2015 08:25 -5,2 C -5,0 C 84 % 1013,2 hPa 0,0 mm 0,0 km/h (0 Bft) NW 315 -7,5 C 0,0 km/h (0 Bft)
28.11.2015 08:30 -5,2 C -4,9 C 84 % 1013,2 hPa 0,0 mm 0,0 km/h (0 Bft) NO 45 -7,5 C 0,0 km/h (0 Bft)
28.11.2015 08:35 -5,0 C -4,7 C 84 % 1013,0 hPa 0,0 mm 0,0 km/h (0 Bft) NO 45 -7,3 C 0,0 km/h (0 Bft)
28.11.2015 08:40 -4,8 C -4,4 C 84 % 1013,0 hPa 0,0 mm 0,0 km/h (0 Bft) NO 45 -7,1 C 0,0 km/h (0 Bft)
28.11.2015 08:45 -4,7 C -4,4 C 84 % 1013,0 hPa 0,0 mm 0,0 km/h (0 Bft) SO 135 -7,0 C 0,0 km/h (0 Bft)
28.11.2015 08:50 -4,5 C -4,3 C 84 % 1013,0 hPa 0,0 mm 0,0 km/h (0 Bft) O-SO 112 -6,8 C 0,0 km/h (0 Bft)
28.11.2015 08:55 -4,5 C -4,3 C 84 % 1013,3 hPa 0,0 mm 0,0 km/h (0 Bft) O-SO 112 -6,8 C 0,0 km/h (0 Bft)
28.11.2015 09:00 -4,4 C -4,4 C 84 % 1013,3 hPa 0,0 mm 0,0 km/h (0 Bft) O-NO 67 -6,7 C 0,0 km/h (0 Bft)
28.11.2015 09:05 -4,4 C -4,2 C 84 % 1013,3 hPa 0,0 mm 0,0 km/h (0 Bft) SO 135 -6,7 C 0,0 km/h (0 Bft)
28.11.2015 09:10 -4,3 C -4,1 C 84 % 1013,3 hPa 0,0 mm 1,3 km/h (1 Bft) W-NW 292 -6,6 C 0,0 km/h (0 Bft)
28.11.2015 09:15 -4,1 C -4,0 C 84 % 1013,7 hPa 0,0 mm 2,6 km/h (1 Bft) W-SW 247 -6,4 C 4,7 km/h (1 Bft)
28.11.2015 09:20 -4,1 C -3,8 C 84 % 1013,7 hPa 0,0 mm 2,3 km/h (1 Bft) W 270 -6,4 C 0,0 km/h (0 Bft)
28.11.2015 09:25 -4,0 C -3,7 C 84 % 1013,7 hPa 0,0 mm 2,1 km/h (1 Bft) S 180 -6,3 C 6,7 km/h (2 Bft)
28.11.2015 09:30 -3,6 C -3,4 C 84 % 1013,7 hPa 0,0 mm 1,6 km/h (1 Bft) S 180 -5,9 C 0,0 km/h (0 Bft)
28.11.2015 09:35 -3,3 C -3,0 C 84 % 1014,1 hPa 0,0 mm 3,1 km/h (1 Bft) W 270 -5,6 C 5,2 km/h (1 Bft)
28.11.2015 09:40 -2,6 C -3,0 C 84 % 1014,1 hPa 0,0 mm 7,5 km/h (2 Bft) SW 225 -4,9 C 3,6 km/h (1 Bft)
28.11.2015 09:45 -2,3 C -2,4 C 84 % 1014,1 hPa 0,0 mm 7,0 km/h (2 Bft) SW 225 -4,6 C 7,8 km/h (2 Bft)
28.11.2015 09:50 -1,9 C -1,9 C 84 % 1014,1 hPa 0,0 mm 5,7 km/h (1 Bft) SW 225 -4,2 C 9,3 km/h (2 Bft)
28.11.2015 09:55 -1,8 C -1,7 C 83 % 1014,4 hPa 0,0 mm 6,0 km/h (2 Bft) SW 225 -4,3 C 7,3 km/h (2 Bft)
28.11.2015 10:00 -1,6 C -1,8 C 83 % 1014,4 hPa 0,0 mm 6,7 km/h (2 Bft) S-SW 202 -4,1 C 18,9 km/h (3 Bft)
28.11.2015 10:05 -1,8 C -1,8 C 82 % 1014,4 hPa 0,0 mm 7,3 km/h (2 Bft) SW 225 -4,5 C 12,9 km/h (3 Bft)
28.11.2015 10:10 -1,8 C -1,7 C 82 % 1014,4 hPa 0,0 mm 6,0 km/h (2 Bft) SW 225 -4,5 C 0,0 km/h (0 Bft)
28.11.2015 10:15 -1,9 C -1,5 C 82 % 1014,8 hPa 0,0 mm 5,4 km/h (1 Bft) NW 315 -4,6 C 15,3 km/h (3 Bft)
28.11.2015 10:20 -1,9 C -1,3 C 81 % 1014,8 hPa 0,0 mm 4,7 km/h (1 Bft) W 270 -4,7 C 8,8 km/h (2 Bft)
28.11.2015 10:25 -1,9 C -1,5 C 81 % 1014,8 hPa 0,0 mm 5,7 km/h (1 Bft) SW 225 -4,7 C 8,8 km/h (2 Bft)
28.11.2015 10:30 -1,8 C -1,5 C 82 % 1014,8 hPa 0,0 mm 6,0 km/h (2 Bft) N-NW 337 -4,5 C 11,7 km/h (2 Bft)
28.11.2015 10:35 -1,8 C -1,4 C 82 % 1014,7 hPa 0,0 mm 6,2 km/h (2 Bft) W-SW 247 -4,5 C 7,8 km/h (2 Bft)
28.11.2015 10:40 -1,6 C -1,4 C 82 % 1014,7 hPa 0,0 mm 6,7 km/h (2 Bft) W-SW 247 -4,3 C 8,5 km/h (2 Bft)
28.11.2015 10:45 -1,6 C -1,4 C 82 % 1014,7 hPa 0,0 mm 7,0 km/h (2 Bft) W-SW 247 -4,3 C 8,5 km/h (2 Bft)
28.11.2015 10:50 -1,4 C -1,2 C 82 % 1014,7 hPa 0,0 mm 6,5 km/h (2 Bft) SW 225 -4,1 C 6,7 km/h (2 Bft)
28.11.2015 10:55 -1,3 C -0,8 C 82 % 1015,0 hPa 0,0 mm 5,7 km/h (1 Bft) W 270 -4,0 C 4,4 km/h (1 Bft)
28.11.2015 11:00 -1,0 C -0,3 C 82 % 1015,0 hPa 0,0 mm 3,9 km/h (1 Bft) W 270 -3,7 C 4,7 km/h (1 Bft)
28.11.2015 11:05 -1,0 C -0,1 C 82 % 1015,0 hPa 0,0 mm 3,9 km/h (1 Bft) S 180 -3,7 C 3,9 km/h (1 Bft)
28.11.2015 11:10 -1,0 C -0,2 C 82 % 1015,0 hPa 0,0 mm 4,7 km/h (1 Bft) NW 315 -3,7 C 6,5 km/h (2 Bft)
28.11.2015 11:15 -1,0 C -0,2 C 82 % 1015,3 hPa 0,0 mm 4,9 km/h (1 Bft) W-NW 292 -3,7 C 6,7 km/h (2 Bft)
28.11.2015 11:20 -0,9 C -0,3 C 83 % 1015,3 hPa 0,0 mm 5,4 km/h (1 Bft) S-SW 202 -3,4 C 8,0 km/h (2 Bft)
28.11.2015 11:25 -0,9 C -0,4 C 83 % 1015,3 hPa 0,0 mm 6,2 km/h (2 Bft) SW 225 -3,4 C 9,3 km/h (2 Bft)
28.11.2015 11:30 -0,7 C 0,0 C 83 % 1015,3 hPa 0,0 mm 4,9 km/h (1 Bft) W 270 -3,2 C 19,7 km/h (3 Bft)
28.11.2015 11:31 -0,5 C 0,4 C 83 % 1015,4 hPa 0,0 mm 3,1 km/h (1 Bft) SW 225 -3,0 C 4,4 km/h (1 Bft)
28.11.2015 11:34 -0,5 C 0,4 C 83 % 1015,4 hPa 0,0 mm 3,1 km/h (1 Bft) SW 225 -3,0 C 4,4 km/h (1 Bft)
28.11.2015 11:40 -0,4 C 0,7 C 83 % 1015,4 hPa 0,0 mm 2,1 km/h (1 Bft) W 270 -2,9 C 4,4 km/h (1 Bft)
28.11.2015 11:45 -0,3 C 0,7 C 83 % 1015,4 hPa 0,0 mm 3,1 km/h (1 Bft) W-SW 247 -2,8 C 8,5 km/h (2 Bft)
28.11.2015 11:50 0,0 C 0,5 C 83 % 1015,4 hPa 0,0 mm 5,2 km/h (1 Bft) W-SW 247 -2,5 C 7,0 km/h (2 Bft)
28.11.2015 11:55 0,0 C 0,3 C 83 % 1015,8 hPa 0,0 mm 6,5 km/h (2 Bft) W-SW 247 -2,5 C 8,8 km/h (2 Bft)
28.11.2015 12:00 0,1 C 0,2 C 84 % 1015,8 hPa 0,0 mm 7,0 km/h (2 Bft) SW 225 -2,3 C 6,0 km/h (2 Bft)
28.11.2015 12:05 0,1 C 0,2 C 84 % 1015,8 hPa 0,0 mm 7,5 km/h (2 Bft) W-SW 247 -2,3 C 9,8 km/h (2 Bft)
28.11.2015 12:10 0,1 C 0,1 C 84 % 1015,8 hPa 0,0 mm 8,5 km/h (2 Bft) SW 225 -2,3 C 12,9 km/h (3 Bft)
28.11.2015 12:15 0,2 C 0,2 C 84 % 1016,0 hPa 0,0 mm 8,3 km/h (2 Bft) W-SW 247 -2,2 C 7,3 km/h (2 Bft)
28.11.2015 12:20 0,3 C 0,4 C 84 % 1016,0 hPa 0,0 mm 8,8 km/h (2 Bft) NW 315 -2,1 C 20,2 km/h (4 Bft)
28.11.2015 12:25 0,3 C 0,5 C 85 % 1016,0 hPa 0,0 mm 8,3 km/h (2 Bft) W 270 -1,9 C 10,4 km/h (2 Bft)
28.11.2015 12:30 0,4 C 0,5 C 85 % 1016,0 hPa 0,0 mm 8,0 km/h (2 Bft) W 270 -1,8 C 7,8 km/h (2 Bft)
28.11.2015 12:35 0,4 C 0,5 C 85 % 1016,2 hPa 0,0 mm 9,1 km/h (2 Bft) S 180 -1,8 C 6,7 km/h (2 Bft)
28.11.2015 12:40 0,4 C 0,6 C 85 % 1016,2 hPa 0,0 mm 8,5 km/h (2 Bft) W-SW 247 -1,8 C 9,8 km/h (2 Bft)
28.11.2015 12:45 0,6 C 0,6 C 85 % 1016,2 hPa 0,0 mm 8,3 km/h (2 Bft) NW 315 -1,6 C 9,8 km/h (2 Bft)
28.11.2015 12:50 0,6 C 0,6 C 85 % 1016,2 hPa 0,0 mm 9,3 km/h (2 Bft) S-SW 202 -1,6 C 13,5 km/h (3 Bft)
28.11.2015 12:55 0,6 C 0,4 C 85 % 1016,5 hPa 0,0 mm 9,8 km/h (2 Bft) W 270 -1,6 C 15,3 km/h (3 Bft)
28.11.2015 13:00 0,7 C 0,6 C 86 % 1016,5 hPa 0,0 mm 10,1 km/h (2 Bft) W-NW 292 -1,4 C 23,3 km/h (4 Bft)
28.11.2015 13:05 0,7 C 0,7 C 86 % 1016,5 hPa 0,0 mm 9,1 km/h (2 Bft) SW 225 -1,4 C 6,5 km/h (2 Bft)
28.11.2015 13:10 0,7 C 0,6 C 86 % 1016,5 hPa 0,0 mm 10,1 km/h (2 Bft) W 270 -1,4 C 25,4 km/h (4 Bft)
28.11.2015 13:15 0,7 C 0,7 C 86 % 1017,1 hPa 0,0 mm 10,6 km/h (2 Bft) W 270 -1,4 C 27,7 km/h (4 Bft)
28.11.2015 13:20 0,8 C 0,7 C 86 % 1017,1 hPa 0,0 mm 10,1 km/h (2 Bft) W 270 -1,3 C 17,3 km/h (3 Bft)
28.11.2015 13:25 0,8 C 0,5 C 86 % 1017,1 hPa 0,0 mm 11,4 km/h (2 Bft) W-NW 292 -1,3 C 10,4 km/h (2 Bft)
28.11.2015 13:30 0,8 C 0,5 C 86 % 1017,1 hPa 0,0 mm 10,9 km/h (2 Bft) W-NW 292 -1,3 C 11,9 km/h (2 Bft)
28.11.2015 13:35 0,8 C 0,4 C 86 % 1017,5 hPa 0,0 mm 11,1 km/h (2 Bft) W 270 -1,3 C 10,4 km/h (2 Bft)
28.11.2015 13:40 0,8 C 0,7 C 86 % 1017,5 hPa 0,0 mm 12,7 km/h (3 Bft) W 270 -1,3 C 24,3 km/h (4 Bft)
28.11.2015 13:45 0,8 C 0,4 C 86 % 1017,5 hPa 0,0 mm 11,9 km/h (2 Bft) W 270 -1,3 C 18,4 km/h (3 Bft)
28.11.2015 13:50 0,8 C 0,4 C 86 % 1017,5 hPa 0,0 mm 12,2 km/h (2 Bft) W-SW 247 -1,3 C 33,1 km/h (5 Bft)
28.11.2015 13:55 0,8 C 0,5 C 86 % 1017,7 hPa 0,0 mm 12,7 km/h (3 Bft) W-NW 292 -1,3 C 15,8 km/h (3 Bft)
28.11.2015 14:00 0,8 C 0,4 C 86 % 1017,7 hPa 0,0 mm 13,5 km/h (3 Bft) W-SW 247 -1,3 C 36,5 km/h (5 Bft)
28.11.2015 14:05 0,8 C 0,3 C 86 % 1017,7 hPa 0,0 mm 12,9 km/h (3 Bft) W-SW 247 -1,3 C 19,2 km/h (3 Bft)
28.11.2015 14:10 0,8 C 0,1 C 86 % 1017,7 hPa 0,0 mm 11,4 km/h (2 Bft) W 270 -1,3 C 14,0 km/h (3 Bft)
28.11.2015 14:15 0,8 C 0,0 C 86 % 1017,9 hPa 0,0 mm 11,7 km/h (2 Bft) W-SW 247 -1,3 C 14,0 km/h (3 Bft)
28.11.2015 14:20 0,8 C 0,3 C 86 % 1017,9 hPa 0,0 mm 12,4 km/h (3 Bft) W-NW 292 -1,3 C 14,5 km/h (3 Bft)
28.11.2015 14:25 0,8 C 0,1 C 86 % 1017,9 hPa 0,0 mm 11,1 km/h (2 Bft) W 270 -1,3 C 10,1 km/h (2 Bft)
28.11.2015 14:30 0,8 C 0,1 C 86 % 1017,9 hPa 0,0 mm 9,6 km/h (2 Bft) SW 225 -1,3 C 12,2 km/h (2 Bft)
28.11.2015 14:35 0,8 C 0,1 C 86 % 1018,2 hPa 0,0 mm 9,8 km/h (2 Bft) SW 225 -1,3 C 7,0 km/h (2 Bft)
28.11.2015 14:40 0,8 C 0,1 C 86 % 1018,2 hPa 0,0 mm 9,3 km/h (2 Bft) S 180 -1,3 C 13,2 km/h (3 Bft)
28.11.2015 14:45 0,8 C 0,1 C 86 % 1018,2 hPa 0,0 mm 9,6 km/h (2 Bft) W 270 -1,3 C 12,9 km/h (3 Bft)
28.11.2015 14:50 0,8 C 0,1 C 86 % 1018,2 hPa 0,0 mm 9,6 km/h (2 Bft) W-NW 292 -1,3 C 7,5 km/h (2 Bft)
28.11.2015 14:55 0,8 C 0,1 C 86 % 1018,5 hPa 0,0 mm 10,1 km/h (2 Bft) W-SW 247 -1,3 C 19,7 km/h (3 Bft)
28.11.2015 15:00 0,8 C -0,1 C 86 % 1018,5 hPa 0,0 mm 11,1 km/h (2 Bft) W 270 -1,3 C 14,2 km/h (3 Bft)
28.11.2015 15:05 0,8 C 0,0 C 86 % 1018,5 hPa 0,0 mm 9,8 km/h (2 Bft) W-NW 292 -1,3 C 8,8 km/h (2 Bft)
28.11.2015 15:10 0,8 C 0,0 C 86 % 1018,5 hPa 0,0 mm 9,3 km/h (2 Bft) NW 315 -1,3 C 11,9 km/h (2 Bft)
28.11.2015 15:15 0,8 C 0,0 C 86 % 1018,7 hPa 0,0 mm 10,1 km/h (2 Bft) W-SW 247 -1,3 C 6,7 km/h (2 Bft)
28.11.2015 15:20 0,8 C -0,1 C 86 % 1018,7 hPa 0,0 mm 10,9 km/h (2 Bft) W 270 -1,3 C 9,8 km/h (2 Bft)
28.11.2015 15:25 0,8 C -0,1 C 86 % 1018,7 hPa 0,0 mm 10,9 km/h (2 Bft) W-SW 247 -1,3 C 13,2 km/h (3 Bft)
28.11.2015 15:30 0,8 C 0,0 C 86 % 1018,7 hPa 0,0 mm 10,1 km/h (2 Bft) SW 225 -1,3 C 13,5 km/h (3 Bft)
28.11.2015 15:35 0,8 C -0,2 C 87 % 1019,1 hPa 0,0 mm 11,1 km/h (2 Bft) W 270 -1,1 C 11,9 km/h (2 Bft)
28.11.2015 15:40 0,8 C -0,2 C 87 % 1019,1 hPa 0,0 mm 11,7 km/h (2 Bft) NW 315 -1,1 C 11,7 km/h (2 Bft)
28.11.2015 15:45 0,8 C 0,0 C 87 % 1019,1 hPa 0,0 mm 12,4 km/h (3 Bft) W 270 -1,1 C 26,7 km/h (4 Bft)
28.11.2015 15:50 0,8 C 0,0 C 87 % 1019,1 hPa 0,0 mm 14,0 km/h (3 Bft) W-SW 247 -1,1 C 16,6 km/h (3 Bft)
28.11.2015 15:55 0,8 C 0,0 C 87 % 1019,3 hPa 0,0 mm 12,9 km/h (3 Bft) SW 225 -1,1 C 11,7 km/h (2 Bft)
28.11.2015 16:00 0,6 C -0,2 C 85 % 1019,3 hPa 0,0 mm 10,1 km/h (2 Bft) NW 315 -1,6 C 8,8 km/h (2 Bft)
28.11.2015 16:05 0,6 C -0,2 C 85 % 1019,3 hPa 0,0 mm 10,1 km/h (2 Bft) SW 225 -1,6 C 9,6 km/h (2 Bft)
28.11.2015 16:10 0,6 C -0,3 C 85 % 1019,3 hPa 0,0 mm 10,1 km/h (2 Bft) W-NW 292 -1,6 C 16,6 km/h (3 Bft)
28.11.2015 16:15 0,6 C -0,2 C 85 % 1019,5 hPa 0,0 mm 9,3 km/h (2 Bft) W-SW 247 -1,6 C 9,6 km/h (2 Bft)
28.11.2015 16:20 0,6 C -0,3 C 87 % 1019,5 hPa 0,0 mm 8,8 km/h (2 Bft) W-SW 247 -1,3 C 9,8 km/h (2 Bft)
28.11.2015 16:21 0,6 C -0,4 C 87 % 1019,5 hPa 0,0 mm 9,6 km/h (2 Bft) W-SW 247 -1,3 C 9,6 km/h (2 Bft)
28.11.2015 16:25 0,6 C -0,4 C 87 % 1019,5 hPa 0,0 mm 9,6 km/h (2 Bft) W-SW 247 -1,3 C 9,6 km/h (2 Bft)
28.11.2015 16:30 0,5 C -0,5 C 87 % 1019,5 hPa 0,7 mm 9,8 km/h (2 Bft) W-NW 292 -1,4 C 13,2 km/h (3 Bft)
28.11.2015 16:32 0,5 C -0,5 C 87 % 1019,5 hPa 0,0 mm 9,8 km/h (2 Bft) W-NW 292 -1,4 C 13,2 km/h (3 Bft)
28.11.2015 16:34 0,5 C -0,3 C 87 % 1019,7 hPa 0,0 mm 8,0 km/h (2 Bft) W 270 -1,4 C 10,4 km/h (2 Bft)
28.11.2015 16:40 0,5 C -0,2 C 87 % 1019,7 hPa 0,0 mm 7,0 km/h (2 Bft) W-NW 292 -1,4 C 5,4 km/h (1 Bft)
28.11.2015 16:45 0,4 C -0,2 C 87 % 1019,7 hPa 0,0 mm 6,5 km/h (2 Bft) SW 225 -1,5 C 10,6 km/h (2 Bft)
28.11.2015 16:50 0,4 C -0,1 C 87 % 1019,7 hPa 0,0 mm 5,2 km/h (1 Bft) W-SW 247 -1,5 C 9,3 km/h (2 Bft)
28.11.2015 16:55 0,4 C -0,1 C 87 % 1020,0 hPa 0,0 mm 5,7 km/h (1 Bft) W-SW 247 -1,5 C 9,8 km/h (2 Bft)
28.11.2015 17:00 0,4 C -0,1 C 87 % 1020,0 hPa 0,0 mm 5,4 km/h (1 Bft) SW 225 -1,5 C 7,3 km/h (2 Bft)
28.11.2015 17:05 0,3 C 0,0 C 87 % 1020,0 hPa 0,0 mm 4,4 km/h (1 Bft) NW 315 -1,6 C 6,2 km/h (2 Bft)
28.11.2015 17:10 0,3 C 0,0 C 87 % 1020,0 hPa 0,0 mm 3,9 km/h (1 Bft) W 270 -1,6 C 4,9 km/h (1 Bft)
28.11.2015 17:15 0,3 C -0,1 C 87 % 1020,2 hPa 0,0 mm 4,7 km/h (1 Bft) W-SW 247 -1,6 C 9,1 km/h (2 Bft)
28.11.2015 17:20 0,3 C -0,2 C 87 % 1020,2 hPa 0,0 mm 5,7 km/h (1 Bft) SW 225 -1,6 C 7,8 km/h (2 Bft)
28.11.2015 17:25 0,3 C -0,3 C 87 % 1020,2 hPa 0,0 mm 6,2 km/h (2 Bft) W-SW 247 -1,6 C 6,2 km/h (2 Bft)
28.11.2015 17:30 0,3 C -0,3 C 87 % 1020,2 hPa 0,0 mm 6,2 km/h (2 Bft) W-SW 247 -1,6 C 3,6 km/h (1 Bft)
28.11.2015 17:31 0,3 C -0,3 C 87 % 1020,3 hPa 0,0 mm 6,2 km/h (2 Bft) W 270 -1,6 C 13,5 km/h (3 Bft)
28.11.2015 17:35 0,3 C -0,3 C 87 % 1020,3 hPa 0,0 mm 6,2 km/h (2 Bft) W 270 -1,6 C 13,5 km/h (3 Bft)
28.11.2015 17:40 0,3 C -0,2 C 87 % 1020,3 hPa 0,0 mm 5,4 km/h (1 Bft) W 270 -1,6 C 6,0 km/h (2 Bft)
28.11.2015 17:45 0,3 C -0,3 C 87 % 1020,3 hPa 0,0 mm 6,2 km/h (2 Bft) W 270 -1,6 C 7,8 km/h (2 Bft)
28.11.2015 17:50 0,3 C -0,2 C 87 % 1020,3 hPa 0,0 mm 5,7 km/h (1 Bft) W 270 -1,6 C 0,0 km/h (0 Bft)
28.11.2015 17:55 0,2 C -0,2 C 87 % 1020,5 hPa 0,0 mm 4,9 km/h (1 Bft) W 270 -1,7 C 3,4 km/h (1 Bft)
28.11.2015 18:00 0,2 C -0,1 C 87 % 1020,5 hPa 0,0 mm 4,4 km/h (1 Bft) W-SW 247 -1,7 C 12,4 km/h (3 Bft)
28.11.2015 18:05 0,2 C -0,3 C 87 % 1020,5 hPa 0,0 mm 5,2 km/h (1 Bft) W-SW 247 -1,7 C 5,2 km/h (1 Bft)
28.11.2015 18:10 0,3 C -0,2 C 87 % 1020,5 hPa 0,0 mm 6,0 km/h (2 Bft) W 270 -1,6 C 4,1 km/h (1 Bft)
28.11.2015 18:15 0,3 C -0,2 C 87 % 1020,7 hPa 0,0 mm 6,0 km/h (2 Bft) W-SW 247 -1,6 C 9,1 km/h (2 Bft)
28.11.2015 18:20 0,3 C -0,2 C 87 % 1020,7 hPa 0,0 mm 6,0 km/h (2 Bft) W 270 -1,6 C 4,7 km/h (1 Bft)
28.11.2015 18:25 0,3 C -0,2 C 87 % 1020,7 hPa 0,0 mm 6,2 km/h (2 Bft) W 270 -1,6 C 16,8 km/h (3 Bft)
28.11.2015 18:30 0,2 C -0,2 C 87 % 1020,7 hPa 0,0 mm 5,2 km/h (1 Bft) W 270 -1,7 C 4,4 km/h (1 Bft)
28.11.2015 18:35 0,1 C -0,4 C 87 % 1020,8 hPa 0,0 mm 5,2 km/h (1 Bft) W-SW 247 -1,8 C 4,1 km/h (1 Bft)
28.11.2015 18:40 0,1 C -0,5 C 87 % 1020,8 hPa 0,0 mm 5,7 km/h (1 Bft) W 270 -1,8 C 5,4 km/h (1 Bft)
28.11.2015 18:45 0,1 C -0,5 C 87 % 1020,8 hPa 0,0 mm 6,0 km/h (2 Bft) W-SW 247 -1,8 C 7,8 km/h (2 Bft)
28.11.2015 18:50 0,0 C -0,7 C 87 % 1020,8 hPa 0,0 mm 6,5 km/h (2 Bft) N 360 -1,9 C 4,4 km/h (1 Bft)
28.11.2015 18:55 -0,2 C -0,9 C 87 % 1020,8 hPa 0,0 mm 6,5 km/h (2 Bft) W-SW 247 -2,1 C 11,1 km/h (2 Bft)
28.11.2015 19:00 -0,2 C -0,8 C 87 % 1020,8 hPa 0,0 mm 6,0 km/h (2 Bft) W-SW 247 -2,1 C 8,3 km/h (2 Bft)
28.11.2015 19:05 -0,1 C -0,9 C 87 % 1020,8 hPa 0,0 mm 7,3 km/h (2 Bft) SW 225 -2,0 C 11,1 km/h (2 Bft)
28.11.2015 19:10 -0,2 C -1,1 C 87 % 1020,8 hPa 0,0 mm 7,8 km/h (2 Bft) S-SW 202 -2,1 C 13,7 km/h (3 Bft)
28.11.2015 19:15 -0,1 C -1,0 C 87 % 1021,0 hPa 0,0 mm 8,5 km/h (2 Bft) W-SW 247 -2,0 C 12,2 km/h (2 Bft)
28.11.2015 19:20 -0,1 C -1,0 C 87 % 1021,0 hPa 0,0 mm 8,5 km/h (2 Bft) W-SW 247 -2,0 C 9,1 km/h (2 Bft)
28.11.2015 19:25 -0,1 C -1,0 C 87 % 1021,0 hPa 0,0 mm 7,8 km/h (2 Bft) SW 225 -2,0 C 11,4 km/h (2 Bft)
28.11.2015 19:30 -0,2 C -1,1 C 86 % 1021,0 hPa 0,0 mm 8,5 km/h (2 Bft) W-SW 247 -2,3 C 11,9 km/h (2 Bft)
28.11.2015 19:35 -0,4 C -1,3 C 86 % 1021,1 hPa 0,0 mm 8,3 km/h (2 Bft) W-SW 247 -2,4 C 9,8 km/h (2 Bft)
28.11.2015 19:40 -0,7 C -1,4 C 86 % 1021,1 hPa 0,0 mm 6,5 km/h (2 Bft) W-SW 247 -2,7 C 5,7 km/h (1 Bft)
28.11.2015 19:45 -0,9 C -1,6 C 85 % 1021,1 hPa 0,0 mm 5,7 km/h (1 Bft) W-SW 247 -3,1 C 4,4 km/h (1 Bft)
28.11.2015 19:50 -1,2 C -1,7 C 85 % 1021,1 hPa 0,0 mm 4,7 km/h (1 Bft) W-SW 247 -3,4 C 8,3 km/h (2 Bft)
28.11.2015 19:55 -1,3 C -1,8 C 85 % 1021,0 hPa 0,0 mm 4,1 km/h (1 Bft) W 270 -3,5 C 3,4 km/h (1 Bft)
28.11.2015 20:00 -1,4 C -2,2 C 85 % 1021,0 hPa 0,0 mm 5,7 km/h (1 Bft) SW 225 -3,6 C 7,8 km/h (2 Bft)
28.11.2015 20:05 -1,3 C -2,2 C 85 % 1021,0 hPa 0,0 mm 6,2 km/h (2 Bft) S 180 -3,5 C 8,3 km/h (2 Bft)
28.11.2015 20:10 -1,3 C -2,2 C 85 % 1021,0 hPa 0,0 mm 6,5 km/h (2 Bft) SW 225 -3,5 C 7,3 km/h (2 Bft)
28.11.2015 20:15 -1,3 C -2,2 C 85 % 1021,4 hPa 0,0 mm 6,5 km/h (2 Bft) SW 225 -3,5 C 8,3 km/h (2 Bft)
28.11.2015 20:20 -1,4 C -2,4 C 85 % 1021,4 hPa 0,0 mm 7,0 km/h (2 Bft) W-SW 247 -3,6 C 8,5 km/h (2 Bft)
28.11.2015 20:25 -1,4 C -2,4 C 85 % 1021,4 hPa 0,0 mm 7,0 km/h (2 Bft) W-SW 247 -3,6 C 5,2 km/h (1 Bft)
28.11.2015 20:30 -1,4 C -2,5 C 85 % 1021,4 hPa 0,0 mm 8,0 km/h (2 Bft) S 180 -3,6 C 10,6 km/h (2 Bft)
28.11.2015 20:35 -1,6 C -2,7 C 84 % 1021,5 hPa 0,0 mm 8,3 km/h (2 Bft) S-SW 202 -3,9 C 11,9 km/h (2 Bft)
28.11.2015 20:40 -1,4 C -2,5 C 84 % 1021,5 hPa 0,0 mm 8,3 km/h (2 Bft) S 180 -3,7 C 8,5 km/h (2 Bft)
28.11.2015 20:45 -1,5 C -2,7 C 84 % 1021,5 hPa 0,0 mm 9,1 km/h (2 Bft) SW 225 -3,8 C 18,6 km/h (3 Bft)
28.11.2015 20:50 -1,3 C -2,6 C 83 % 1021,5 hPa 0,0 mm 10,9 km/h (2 Bft) SW 225 -3,8 C 7,0 km/h (2 Bft)
28.11.2015 20:55 -1,3 C -2,7 C 83 % 1022,1 hPa 0,0 mm 11,4 km/h (2 Bft) W-SW 247 -3,8 C 15,3 km/h (3 Bft)
28.11.2015 21:00 -1,3 C -2,5 C 82 % 1022,1 hPa 0,0 mm 10,4 km/h (2 Bft) W-SW 247 -4,0 C 7,8 km/h (2 Bft)
28.11.2015 21:05 -1,2 C -2,5 C 82 % 1022,1 hPa 0,0 mm 11,4 km/h (2 Bft) W-SW 247 -3,9 C 15,5 km/h (3 Bft)
28.11.2015 21:10 -1,3 C -2,6 C 81 % 1022,1 hPa 0,0 mm 11,9 km/h (2 Bft) S 180 -4,1 C 17,1 km/h (3 Bft)
28.11.2015 21:15 -1,2 C -2,6 C 81 % 1022,2 hPa 0,0 mm 12,2 km/h (2 Bft) S-SW 202 -4,0 C 14,8 km/h (3 Bft)
28.11.2015 21:20 -1,1 C -2,4 C 81 % 1022,2 hPa 0,0 mm 11,9 km/h (2 Bft) S 180 -3,9 C 15,5 km/h (3 Bft)
28.11.2015 21:25 -1,1 C -2,2 C 81 % 1022,2 hPa 0,0 mm 10,1 km/h (2 Bft) SO 135 -3,9 C 9,1 km/h (2 Bft)
28.11.2015 21:30 -1,1 C -2,0 C 81 % 1022,2 hPa 0,0 mm 8,3 km/h (2 Bft) SW 225 -3,9 C 6,2 km/h (2 Bft)
28.11.2015 21:35 -1,2 C -1,9 C 81 % 1022,4 hPa 0,0 mm 7,3 km/h (2 Bft) S-SW 202 -4,0 C 6,2 km/h (2 Bft)
28.11.2015 21:40 -1,2 C -1,9 C 81 % 1022,4 hPa 0,0 mm 6,7 km/h (2 Bft) SW 225 -4,0 C 7,3 km/h (2 Bft)
28.11.2015 21:45 -1,3 C -2,0 C 81 % 1022,4 hPa 0,0 mm 6,5 km/h (2 Bft) SW 225 -4,1 C 9,8 km/h (2 Bft)
28.11.2015 21:50 -1,2 C -2,0 C 81 % 1022,4 hPa 0,0 mm 7,5 km/h (2 Bft) S 180 -4,0 C 10,4 km/h (2 Bft)
28.11.2015 21:55 -1,4 C -2,2 C 81 % 1022,3 hPa 0,0 mm 7,3 km/h (2 Bft) S 180 -4,2 C 6,0 km/h (2 Bft)
28.11.2015 22:00 -1,7 C -2,4 C 81 % 1022,3 hPa 0,0 mm 6,0 km/h (2 Bft) W-SW 247 -4,5 C 0,0 km/h (0 Bft)
28.11.2015 22:05 -2,0 C -2,5 C 81 % 1022,3 hPa 0,0 mm 4,9 km/h (1 Bft) W-SW 247 -4,8 C 4,4 km/h (1 Bft)
28.11.2015 22:10 -1,9 C -2,6 C 81 % 1022,3 hPa 0,0 mm 5,2 km/h (1 Bft) W-SW 247 -4,7 C 10,9 km/h (2 Bft)
28.11.2015 22:15 -1,9 C -2,7 C 81 % 1022,3 hPa 0,0 mm 6,2 km/h (2 Bft) SW 225 -4,7 C 9,1 km/h (2 Bft)
28.11.2015 22:20 -1,7 C -2,7 C 82 % 1022,3 hPa 0,0 mm 7,8 km/h (2 Bft) W-SW 247 -4,4 C 11,4 km/h (2 Bft)
28.11.2015 22:25 -1,4 C -2,6 C 82 % 1022,3 hPa 0,0 mm 9,1 km/h (2 Bft) SW 225 -4,1 C 12,7 km/h (3 Bft)
28.11.2015 22:30 -1,4 C -2,5 C 81 % 1022,3 hPa 0,0 mm 8,5 km/h (2 Bft) SW 225 -4,2 C 7,8 km/h (2 Bft)
28.11.2015 22:35 -1,7 C -2,5 C 81 % 1022,1 hPa 0,0 mm 6,5 km/h (2 Bft) S 180 -4,5 C 4,7 km/h (1 Bft)
28.11.2015 22:40 -1,3 C -2,3 C 81 % 1022,1 hPa 0,0 mm 7,5 km/h (2 Bft) SW 225 -4,1 C 11,4 km/h (2 Bft)
28.11.2015 22:45 -1,1 C -2,3 C 81 % 1022,1 hPa 0,0 mm 9,8 km/h (2 Bft) SW 225 -3,9 C 13,2 km/h (3 Bft)
28.11.2015 22:50 -1,4 C -2,4 C 80 % 1022,1 hPa 0,0 mm 9,3 km/h (2 Bft) SW 225 -4,4 C 14,0 km/h (3 Bft)
28.11.2015 22:55 -1,2 C -2,2 C 80 % 1022,3 hPa 0,0 mm 8,8 km/h (2 Bft) S 180 -4,2 C 11,1 km/h (2 Bft)
28.11.2015 23:00 -1,1 C -2,2 C 80 % 1022,3 hPa 0,0 mm 10,1 km/h (2 Bft) S 180 -4,1 C 11,9 km/h (2 Bft)
28.11.2015 23:05 -1,2 C -2,2 C 79 % 1022,3 hPa 0,0 mm 9,3 km/h (2 Bft) S 180 -4,4 C 12,4 km/h (3 Bft)
28.11.2015 23:10 -1,3 C -2,1 C 79 % 1022,3 hPa 0,0 mm 7,3 km/h (2 Bft) W-SW 247 -4,5 C 9,8 km/h (2 Bft)
28.11.2015 23:15 -1,2 C -2,0 C 79 % 1022,5 hPa 0,0 mm 7,3 km/h (2 Bft) SW 225 -4,4 C 8,3 km/h (2 Bft)
28.11.2015 23:20 -1,2 C -2,0 C 79 % 1022,5 hPa 0,0 mm 7,3 km/h (2 Bft) S-SO 157 -4,4 C 3,9 km/h (1 Bft)
28.11.2015 23:25 -1,6 C -2,1 C 79 % 1022,5 hPa 0,0 mm 5,4 km/h (1 Bft) S 180 -4,8 C 2,8 km/h (1 Bft)
28.11.2015 23:30 -1,5 C -2,0 C 80 % 1022,5 hPa 0,0 mm 4,7 km/h (1 Bft) SW 225 -4,5 C 9,8 km/h (2 Bft)
28.11.2015 23:31 -1,6 C -2,1 C 80 % 1022,3 hPa 0,0 mm 5,4 km/h (1 Bft) W-SW 247 -4,6 C 6,5 km/h (2 Bft)
28.11.2015 23:36 -1,6 C -2,1 C 80 % 1022,3 hPa 0,0 mm 5,4 km/h (1 Bft) W-SW 247 -4,6 C 6,5 km/h (2 Bft)
28.11.2015 23:40 -1,3 C -2,1 C 80 % 1022,3 hPa 0,0 mm 6,7 km/h (2 Bft) SW 225 -4,3 C 7,3 km/h (2 Bft)
28.11.2015 23:45 -1,3 C -2,0 C 80 % 1022,3 hPa 0,0 mm 7,0 km/h (2 Bft) SW 225 -4,3 C 7,8 km/h (2 Bft)
28.11.2015 23:50 -0,9 C -1,7 C 80 % 1022,3 hPa 0,0 mm 7,3 km/h (2 Bft) SW 225 -3,9 C 9,1 km/h (2 Bft)
28.11.2015 23:55 -0,8 C -1,7 C 80 % 1022,2 hPa 0,0 mm 8,3 km/h (2 Bft) S 180 -3,8 C 8,3 km/h (2 Bft)
_ Min-Zeit 07:15 06:40 23:25 08:50 - 09:05 - - 07:15 22:00
Minimum _ -8,1 C -8,5 C 79 % 1013,0 hPa - 0,0 km/h (0 Bft) - - -10,2 C 0,0 km/h (0 Bft)
_ Max-Zeit 15:55 13:40 19:25 23:30 16:30 15:50 - - 15:55 14:00
Maximum _ 0,8 C 0,7 C 87 % 1022,5 hPa 0,7 mm 14,0 km/h
W-SW (3 Bft)
- - -1,1 C 36,5 km/h
W-SW (5 Bft)
Durchschnitt _ -2,2 C -2,6 C 85 % 1017,0 hPa #0,7 mm 5,2 km/h (1 Bft) W-SW - -4,5 C 7,0 km/h (2 Bft)